Date String (YYYY-MM-DD hh:mm:ss) UTC,Instrument flags,Ambient pressure (hPa),Sample flow (lpm),Bypass flow (lpm),Sample temperature (°C),Ambient temperature (°C),ASC tube jacket temperature (°C),LED temperature (°C),Box temperature (°C),Sample RH (%),Span deviation,Mass concentration (μg/m³),Mass concentration (μg/m³),Mass concentration (μg/m³)
DateTimeUTC,F1_M11,P_M11,Q1_M11,Q2_M11,T1_M11,T2_M11,T3_M11,T4_M11,T5_M11,U1_M11,ZSPAN_M11,X2_M11,X0_M11,X1_M11
2022-09-07 17:00:00,,0834.0,5.00,0.00,29.6,27.9,00.0,38.3,31.5,21.0,0003.3,0014.95,0032.93,0012.67
2022-09-07 17:01:00,,0834.0,5.01,0.00,29.7,28.2,00.0,38.4,31.5,21.2,0003.4,0014.97,0032.48,0012.70
2022-09-07 17:02:00,,0834.0,4.98,0.00,29.7,28.4,00.0,38.4,31.6,21.2,0003.2,0015.00,0031.98,0012.73
2022-09-07 17:03:00,,0834.0,5.01,0.00,29.7,28.5,00.0,38.4,31.7,21.0,0002.9,0015.00,0032.48,0012.79
2022-09-07 17:04:00,,0834.0,4.98,0.00,29.8,28.0,00.0,38.4,31.7,21.0,0002.4,0015.09,0031.94,0012.86
2022-09-07 17:05:00,,0834.0,5.01,0.00,29.7,26.9,00.0,38.4,31.5,21.0,0002.3,0015.17,0032.84,0012.94
2022-09-07 17:06:00,,0834.0,5.00,0.00,29.7,26.8,00.0,38.3,31.5,21.3,0001.8,0015.14,0033.04,0012.97
2022-09-07 17:07:00,,0834.0,5.00,0.00,29.7,27.1,00.0,38.3,31.4,21.2,0001.6,0015.15,0033.45,0012.98
2022-09-07 17:08:00,,0834.0,4.99,0.00,29.6,27.4,00.0,38.3,31.3,20.9,0002.0,0015.15,0032.41,0012.98
2022-09-07 17:09:00,,0834.0,5.00,0.00,29.6,27.6,00.0,38.3,31.4,20.9,0002.0,0015.12,0032.19,0012.97
2022-09-07 17:10:00,,0834.0,5.00,0.00,29.6,27.9,00.0,38.3,31.4,20.8,0002.2,0015.06,0033.24,0012.96
2022-09-07 17:11:00,,0834.0,5.01,0.00,29.7,28.1,00.0,38.3,31.5,20.9,0002.0,0015.09,0032.78,0012.97
2022-09-07 17:12:00,,0833.9,5.01,0.00,29.7,28.3,00.0,38.3,31.6,21.5,0001.9,0015.03,0032.35,0012.96
2022-09-07 17:13:00,,0834.0,4.98,0.00,29.7,28.4,00.0,38.4,31.6,21.4,0002.0,0014.96,0032.60,0012.93
2022-09-07 17:14:00,,0833.9,4.99,0.00,29.7,27.4,00.0,38.4,31.6,21.5,0001.8,0014.96,0032.49,0012.92
2022-09-07 17:15:00,,0833.9,5.01,0.00,29.7,26.7,00.0,38.3,31.5,21.7,0001.9,0014.88,0032.36,0012.89
2022-09-07 17:16:00,,0833.9,5.00,0.00,29.7,26.9,00.0,38.3,31.5,21.6,0001.6,0014.83,0032.47,0012.85
2022-09-07 17:17:00,,0833.9,5.00,0.00,29.6,27.1,00.0,38.3,31.4,21.7,0001.7,0014.79,0032.24,0012.84
2022-09-07 17:18:00,,0833.9,5.00,0.00,29.6,27.4,00.0,38.3,31.4,21.5,0001.8,0014.73,0030.71,0012.83
2022-09-07 17:19:00,,0833.9,4.99,0.00,29.6,27.7,00.0,38.3,31.4,21.7,0001.6,0014.70,0030.82,0012.82
2022-09-07 17:20:00,,0833.9,5.00,0.00,29.6,28.0,00.0,38.3,31.4,22.0,0001.1,0014.68,0030.70,0012.80
2022-09-07 17:21:00,,0833.9,5.01,0.00,29.6,28.2,00.0,38.3,31.5,22.0,0001.2,0014.70,0029.85,0012.78
2022-09-07 17:22:00,,0833.9,4.98,0.00,29.7,28.4,00.0,38.3,31.6,21.9,0001.4,0014.75,0031.38,0012.77
2022-09-07 17:23:00,,0833.9,5.00,0.00,29.7,28.1,00.0,38.3,31.6,22.2,0001.3,0014.85,0033.79,0012.80
2022-09-07 17:24:00,,0833.8,4.98,0.00,29.7,27.0,00.0,38.3,31.5,22.2,0001.1,0014.93,0035.36,0012.83
2022-09-07 17:25:00,,0833.8,5.00,0.00,29.6,26.7,00.0,38.3,31.4,22.2,0001.3,0015.00,0036.19,0012.85
2022-09-07 17:26:00,,0833.8,5.00,0.00,29.6,27.0,00.0,38.2,31.4,22.0,0001.3,0015.06,0035.74,0012.88
2022-09-07 17:27:00,,0833.8,5.01,0.00,29.5,27.2,00.0,38.2,31.3,22.2,0001.2,0015.06,0034.03,0012.93
2022-09-07 17:28:00,,0833.8,5.00,0.00,29.5,27.5,00.0,38.2,31.3,22.3,0001.3,0015.04,0033.78,0012.94
2022-09-07 17:29:00,,0833.8,5.00,0.00,29.6,27.8,00.0,38.2,31.4,22.4,0001.2,0015.03,0033.67,0012.96
2022-09-07 17:30:00,,0833.8,4.99,0.00,29.6,28.0,00.0,38.2,31.4,22.3,0001.2,0015.11,0033.70,0012.99
2022-09-07 17:31:00,,0833.8,5.02,0.00,29.6,28.3,00.0,38.2,31.5,22.0,0001.6,0015.17,0033.41,0013.04
2022-09-07 17:32:00,,0833.8,5.00,0.00,29.7,28.4,00.0,38.3,31.6,21.9,0001.3,0015.22,0032.72,0013.09
2022-09-07 17:33:00,,0833.8,4.99,0.00,29.7,27.7,00.0,38.3,31.5,21.9,0001.1,0015.23,0031.67,0013.14
2022-09-07 17:34:00,,0833.7,5.00,0.00,29.6,26.7,00.0,38.3,31.4,21.9,0001.1,0015.20,0029.80,0013.18
2022-09-07 17:35:00,,0833.7,5.00,0.00,29.6,26.8,00.0,38.2,31.4,22.1,0001.0,0015.20,0029.26,0013.23
2022-09-07 17:36:00,,0833.8,5.01,0.00,29.6,27.1,00.0,38.2,31.3,22.2,0001.3,0015.18,0027.87,0013.27
2022-09-07 17:37:00,,0833.7,5.00,0.00,29.5,27.4,00.0,38.2,31.3,22.1,0001.7,0015.22,0028.19,0013.31
2022-09-07 17:38:00,,0833.7,5.01,0.00,29.5,27.6,00.0,38.2,31.3,22.3,0002.4,0015.28,0029.00,0013.34
2022-09-07 17:39:00,,0833.7,4.99,0.00,29.5,27.9,00.0,38.2,31.4,21.8,0002.6,0015.35,0028.20,0013.40
2022-09-07 17:40:00,,0833.7,5.00,0.00,29.6,28.1,00.0,38.2,31.5,21.5,0002.5,0015.44,0028.34,0013.46
2022-09-07 17:41:00,,0833.7,5.00,0.00,29.6,28.4,00.0,38.2,31.5,21.4,0003.0,0015.57,0029.03,0013.54
2022-09-07 17:42:00,,0833.7,5.00,0.00,29.7,28.5,00.0,38.3,31.6,20.9,0002.9,0015.67,0028.95,0013.62
2022-09-07 17:43:00,,0833.7,5.00,0.00,29.7,27.9,00.0,38.3,31.6,20.5,0003.1,0015.72,0029.41,0013.71
2022-09-07 17:44:00,,0833.7,4.99,0.00,29.6,26.9,00.0,38.3,31.4,20.7,0003.3,0015.83,0029.05,0013.82
2022-09-07 17:45:00,,0833.7,5.01,0.00,29.6,26.9,00.0,38.2,31.4,19.7,0003.3,0016.04,0029.91,0013.98
2022-09-07 17:46:00,,0833.7,4.99,0.00,29.6,27.1,00.0,38.2,31.3,19.4,0003.7,0016.24,0030.22,0014.15
2022-09-07 17:47:00,,0833.7,5.00,0.00,29.5,27.4,00.0,38.2,31.3,19.6,0003.5,0016.41,0031.96,0014.31
2022-09-07 17:48:00,,0833.7,4.99,0.00,29.5,27.7,00.0,38.2,31.3,19.9,0003.5,0016.54,0031.98,0014.45
2022-09-07 17:49:00,,0833.7,5.00,0.00,29.6,27.9,00.0,38.2,31.4,19.5,0003.3,0016.64,0031.37,0014.59
2022-09-07 17:50:00,,0833.7,5.01,0.00,29.6,28.2,00.0,38.2,31.5,19.8,0003.3,0016.76,0032.51,0014.76
2022-09-07 17:51:00,,0833.7,4.99,0.00,29.6,28.4,00.0,38.3,31.6,19.6,0003.5,0016.90,0032.63,0014.91
2022-09-07 17:52:00,,0833.7,5.01,0.00,29.7,27.9,00.0,38.3,31.6,18.8,0003.4,0016.99,0032.83,0015.09
2022-09-07 17:53:00,,0833.6,4.98,0.00,29.6,26.8,00.0,38.3,31.4,19.6,0003.4,0017.15,0034.25,0015.26
2022-09-07 17:54:00,,0833.6,5.00,0.00,29.6,26.7,00.0,38.2,31.4,20.2,0003.3,0017.23,0034.26,0015.34
2022-09-07 17:55:00,,0833.6,5.00,0.00,29.6,27.0,00.0,38.2,31.3,20.6,0003.4,0017.26,0034.11,0015.37
2022-09-07 17:56:00,,0833.6,5.01,0.00,29.5,27.3,00.0,38.2,31.2,21.0,0003.4,0017.23,0033.62,0015.39
2022-09-07 17:57:00,,0833.6,5.00,0.00,29.5,27.6,00.0,38.2,31.3,20.6,0002.7,0017.22,0032.11,0015.40
2022-09-07 17:58:00,,0833.6,5.01,0.00,29.5,27.9,00.0,38.2,31.4,20.4,0002.5,0017.21,0030.54,0015.40
2022-09-07 17:59:00,,0833.6,4.99,0.00,29.6,28.1,00.0,38.2,31.4,20.7,0002.7,0017.21,0030.57,0015.41
